Home > Weather > Kolonia > Past weeks

Flag for Micronesia Weather for the Past 2 Weeks in Kolonia, Pohnpei, Micronesia

Now
81 °F

Mostly cloudy.


Feels Like: 86 °F
Forecast: 80 / 84 °F
Wind: 3 mph from East

Location: Pohnpei

Current Time: Feb 11, 2016 at 12:25:52 AM

Latest Report: Feb 10, 2016 at 11:52 PM


Visibility: 15 mi

Pressure: 29.85 "Hg

Humidity: 78%

Dew point: 73 °F

Location of KoloniaLocation

Historic Weather in Kolonia — Graph

°F

Kolonia Temperature Yesterday

Maximum temperature yesterday: 85 °F (at 9:50 AM)
Minimum temperature yesterday: 79 °F (at 1:51 AM)
Average temperature yesterday: 82 °F

High & Low Weather Summary for the Past Weeks

 TemperatureHumidityPressure
High87 °F (Feb 9, 11:52 AM)96% (Feb 3, 10:52 PM)29.98 "Hg (Feb 3, 10:52 PM)
Low76 °F (Feb 4, 3:52 AM)62% (Jan 29, 12:51 PM)29.75 "Hg (Feb 9, 2:50 PM)
Average82 °F76%29.86 "Hg
* Reported Jan 26 10:50 PM — Feb 10 10:53 PM, Kolonia, Weather by CustomWeather, © 2016

Note: Actual official high and low records may vary slightly from our data, if they occured in-between our weather recording intervals... More about our weather records

Advertising

Kolonia Weather History for the Previous 24 Hours

 ConditionsComfort  
Time TempWeatherWind HumidityBarometerVisibility
10:53 PM
Wed, Feb 10
81 °FPassing clouds.3 mph76%29.85 "Hg15 mi
9:52 PM81 °FMostly cloudy.5 mph77%29.85 "Hg15 mi
8:51 PM81 °FMostly cloudy.2 mph76%29.83 "Hg15 mi
7:51 PM81 °FPartly cloudy.3 mph75%29.82 "Hg15 mi
6:51 PM81 °FPartly cloudy.5 mph72%29.79 "Hg15 mi
5:51 PM82 °FPartly sunny.7 mph68%29.78 "Hg15 mi
4:53 PM82 °FPartly sunny.5 mph68%29.77 "Hg15 mi
3:50 PM83 °FMostly cloudy.8 mph69%29.75 "Hg15 mi
2:50 PM83 °FMostly cloudy.8 mph69%29.75 "Hg15 mi
1:50 PM84 °FMostly cloudy.8 mph65%29.78 "Hg15 mi
12:52 PM84 °FMostly cloudy.9 mph69%29.80 "Hg15 mi
11:52 AM85 °FMostly cloudy.7 mph66%29.84 "Hg15 mi
10:50 AM82 °FMostly cloudy.6 mph72%29.86 "Hg15 mi
9:50 AM85 °FMostly cloudy.5 mph66%29.87 "Hg15 mi
8:50 AM84 °FCloudy.3 mph69%29.86 "Hg15 mi
7:53 AM81 °FMostly cloudy.2 mph76%29.84 "Hg15 mi
6:52 AM80 °FMore clouds than sun.6 mph74%29.82 "Hg15 mi
5:52 AM80 °FMostly cloudy.7 mph73%29.80 "Hg15 mi
4:52 AM81 °FPartly cloudy.3 mph72%29.80 "Hg15 mi
3:52 AM81 °FPartly cloudy.6 mph70%29.80 "Hg15 mi
2:51 AM80 °FPartly cloudy.2 mph74%29.81 "Hg15 mi
1:51 AM79 °FPartly cloudy.5 mph73%29.83 "Hg15 mi
12:52 AM80 °FPassing clouds.2 mph71%29.85 "Hg15 mi
Weather by CustomWeather, © 2016

See weather overviewHow to use our weather pages